Zurück zum Katalog

STARLINK-2581

AktivKommunikationVLEO
NORAD 48412·PAYLOAD·🇺🇸 United States

Gestartet May 4, 2021 von Cape Canaveral Space Force Station

Loading…

Nächste Überflüge (nächste 24 Stunden)

TLE

AktuellSource: CelesTrak SupGP

Epoche: Sep 14, 2026, 12:41 UTC

1 48412C 21038BM  26257.52895833  .00045709  00000+0  14706-2 0  2579
2 48412  53.1563 137.6476 0001224  97.0787  69.4714 15.31663739    11

Verfolge STARLINK-2581 in Echtzeit mit AllMySat

Download on the App Store